[[{"header":{"parameterUnit":"m.s-1","parameterCategory":1,"la1":30.2991,"la2":30.254,"lo1":-89.0895,"lo2":-89.0444,"dy":0.0017,"dx":0.0017,"nx":28,"ny":28,"refTime":"2025-04-25T09:00:00:Z","depth":0,"parameterNumber":2,"parameterNumberName":"U-component_of_WINDS"},"data":[0,0,0,0,0,0,0,0,0,0,0,0,0,0,0,0,0,0,0,0,0,0,0,0,0,0,0,0,0,0,0,0,0,0,0,0,0,0,0,0,0,0,0,0,0,0,0,0,0,0,0,0,0,0,0,0,0,0,0.6331,0.6332,0,0.6394,0.6395,0.6395,0.6419,0.6418,0.6418,0.6418,0.6481,0.6483,0.6485,0,0,0,0,0,0,0,0,0,0,0,0,0,0.623,0.6231,0.6331,0.6332,0.6333,0.6394,0.6395,0.6395,0.6419,0.6418,0.6418,0.6418,0.6481,0.6483,0.6485,0,0,0,0,0,0,0,0,0,0,0,0,0,0.6281,0.6232,0.6331,0.6352,0.6354,0.6394,0.6395,0.6396,0.6419,0.6418,0.6418,0.6418,0.648,0.6483,0.6486,0.6509,0,0,0.6494,0.6495,0,0,0,0,0,0,0,0,0.6278,0.6285,0.6348,0.635,0.6353,0.6398,0.6382,0.6434,0.6419,0.6394,0.6418,0.6418,0.6454,0.6459,0.6471,0.6512,0.6515,0.6494,0.6496,0.6497,0.6498,0,0,0,0,0,0,0,0.6275,0.6282,0.6356,0.6349,0.6352,0.6357,0.6364,0.6392,0.6425,0.6396,0.6398,0.6405,0.6455,0.6469,0.6473,0.6516,0.6494,0.6497,0.6499,0.65,0.6577,0.6578,0,0,0,0,0,0,0.6268,0.6279,0.6354,0.6358,0.6314,0.6359,0.6367,0.6384,0.6425,0.6431,0.6405,0.6406,0.6464,0.647,0.6475,0.6505,0.6497,0.65,0.6502,0.6577,0.6577,0.6578,0,0,0,0,0,0,0.6266,0.6274,0.6351,0.6319,0.6329,0.6361,0.638,0.6385,0.6399,0.6432,0.6437,0.6413,0.6464,0.6471,0.65,0.6507,0.6501,0.6504,0.6577,0.6577,0.6578,0.6564,0,0,0,0,0,0,0.6263,0.6273,0.6283,0.6319,0.6331,0.6376,0.6381,0.6387,0.6403,0.6405,0.644,0.6446,0.6464,0.6496,0.6503,0.6511,0.6506,0.6576,0.6577,0.6578,0.6564,0.6564,0.6564,0,0,0,0,0,0.6259,0.6277,0.6283,0.6292,0.6344,0.6376,0.6383,0.6404,0.6404,0.6414,0.6435,0.6445,0.6505,0.6499,0.6507,0.6516,0.6576,0.6577,0.6577,0.6564,0.6564,0.6564,0,0,0,0,0,0,0.6241,0.6282,0.629,0.632,0.6344,0.638,0.6393,0.6403,0.6428,0.6428,0.6453,0.6461,0.6488,0.6505,0.6497,0.654,0.6541,0.6544,0.6528,0.6528,0.6528,0.6524,0.6508,0,0,0,0,0,0.624,0.6263,0.6298,0.6321,0.6333,0.6361,0.6376,0.639,0.6416,0.6426,0.6449,0.6474,0.6499,0.6514,0.6539,0.6566,0.6574,0.6576,0.6576,0.6576,0.6578,0.6593,0.6594,0.6581,0.6581,0.6581,0,0,0.6239,0.6265,0.6278,0.6318,0.6339,0.6362,0.6369,0.6394,0.6411,0.643,0.6459,0.6476,0.6505,0.6533,0.6547,0.6548,0.6583,0.6577,0.6577,0.6579,0.6594,0.6595,0.6596,0.6581,0.6581,0.6581,0,0,0.6249,0.6271,0.6293,0.6313,0.6344,0.6362,0.6367,0.6401,0.6414,0.6443,0.6457,0.6478,0.652,0.654,0.6555,0.6572,0.6581,0.6579,0.6579,0.6593,0.6594,0.6595,0.6601,0.6602,0.658,0.658,0.658,0,0.6244,0.628,0.6302,0.6325,0.6342,0.6361,0.6382,0.64,0.6438,0.6449,0.645,0.6502,0.6523,0.6556,0.6559,0.6572,0.6578,0.6575,0.6592,0.6594,0.6595,0.66,0.6602,0.658,0.658,0.658,0.658,0,0.6272,0.6296,0.631,0.6345,0.6364,0.6386,0.641,0.6426,0.6438,0.6456,0.6485,0.651,0.654,0.6549,0.6561,0.6583,0.6582,0.6588,0.6589,0.6595,0.6601,0.6603,0.6579,0.6579,0.6579,0.658,0,0,0.6273,0.632,0.6324,0.634,0.6375,0.6394,0.6417,0.6446,0.6458,0.6483,0.6502,0.6537,0.6541,0.6559,0.6573,0.6586,0.6596,0.6589,0.659,0.6589,0.6621,0.6617,0.6619,0.6603,0.6603,0.6604,0.6618,0,0.6288,0.6329,0.6349,0.6381,0.6404,0.6421,0.644,0.6463,0.648,0.6501,0.652,0.6544,0.6548,0.6559,0.6572,0.6592,0.6603,0.6591,0.662,0.6621,0.6612,0.6622,0.6618,0.663,0.6621,0.6621,0.6621,0,0.631,0.6335,0.6369,0.6401,0.6411,0.6428,0.6456,0.6476,0.6502,0.6513,0.6532,0.6546,0.657,0.6569,0.6602,0.6594,0.6606,0.6618,0.6619,0.6622,0.6622,0.6625,0.6635,0.6637,0.6625,0.6625,0.6624,0,0.6307,0.6349,0.6375,0.6388,0.6425,0.6437,0.6453,0.6479,0.6495,0.6519,0.6529,0.6555,0.6569,0.6589,0.6609,0.6607,0.6639,0.6641,0.6649,0.6648,0.6655,0.6654,0.6667,0.6664,0.6664,0.6663,0.6663,0,0.6321,0.6341,0.6373,0.6389,0.6412,0.6435,0.6457,0.6474,0.6497,0.6516,0.6532,0.6549,0.6575,0.6595,0.6611,0.6635,0.6642,0.6651,0.6655,0.665,0.6648,0.6659,0.6658,0.6664,0.6664,0.6664,0.6664,0,0.6321,0.6344,0.6373,0.6406,0.6415,0.643,0.6458,0.6474,0.6491,0.6515,0.6522,0.6549,0.6574,0.6596,0.6628,0.6639,0.6663,0.6668,0.6655,0.6657,0.6663,0.6662,0.6683,0.6686,0.668,0.668,0.668,0,0.6329,0.6345,0.6379,0.6393,0.6409,0.6431,0.6447,0.647,0.6486,0.6516,0.6528,0.6554,0.6576,0.6615,0.6637,0.6662,0.6668,0.6673,0.6671,0.6665,0.6667,0.6666,0.6667,0.6673,0.6673,0.6673,0.6673,0,0.6339,0.6349,0.6372,0.6398,0.6417,0.6439,0.6461,0.6471,0.6498,0.6515,0.654,0.6557,0.659,0.6616,0.6643,0.6659,0.667,0.6673,0.6676,0.6671,0.6662,0.6666,0.6654,0.6672,0.6672,0.6672,0.6672,0.6672,0.6343,0.6358,0.6384,0.6409,0.6428,0.6448,0.6464,0.6483,0.6505,0.6534,0.6545,0.6571,0.6596,0.6634,0.665,0.667,0.6672,0.6677,0.6678,0.6679,0.6677,0.6658,0.6675,0.6675,0.6675,0.6675,0.6675,0,0.6354,0.6372,0.6394,0.6425,0.6444,0.6452,0.6477,0.6492,0.6515,0.6537,0.6558,0.6587,0.6612,0.6636,0.6661,0.6673,0.6678,0.6678,0.6678,0.6681,0.6674,0.6669,0.6673,0.6673,0.6673,0.6673,0.6673,0.6673,0.6362,0.6388,0.64,0.6435,0.6452,0.6478,0.6491,0.6509,0.6527,0.6559,0.6579,0.6595,0.6618,0.6645,0.6667,0.6674,0.6682,0.6681,0.6689,0.6682,0.6682,0.6682,0.6677,0.6683,0.6683,0.6694,0.6694,0.6694]},{"header":{"parameterUnit":"m.s-1","parameterCategory":1,"la1":30.2991,"la2":30.254,"lo1":-89.0895,"lo2":-89.0444,"dy":0.0017,"dx":0.0017,"nx":28,"ny":28,"refTime":"2025-04-25T09:00:00:Z","depth":0,"parameterNumber":3,"parameterNumberName":"V-component_of_WINDS"},"data":[0,0,0,0,0,0,0,0,0,0,0,0,0,0,0,0,0,0,0,0,0,0,0,0,0,0,0,0,0,0,0,0,0,0,0,0,0,0,0,0,0,0,0,0,0,0,0,0,0,0,0,0,0,0,0,0,0,0,1.7379,1.7378,0,1.7358,1.7358,1.7358,1.7313,1.7312,1.7312,1.7311,1.7291,1.7292,1.7292,0,0,0,0,0,0,0,0,0,0,0,0,0,1.738,1.738,1.7379,1.7378,1.7378,1.7358,1.7358,1.7358,1.7313,1.7312,1.7311,1.731,1.7291,1.7291,1.7292,0,0,0,0,0,0,0,0,0,0,0,0,0,1.7372,1.738,1.7379,1.7354,1.7351,1.7358,1.7358,1.7358,1.7314,1.7312,1.7311,1.731,1.7291,1.7291,1.7292,1.7322,0,0,1.7293,1.7294,0,0,0,0,0,0,0,0,1.7372,1.7372,1.7357,1.7355,1.7353,1.7337,1.7351,1.7346,1.7314,1.7328,1.7311,1.7309,1.7308,1.7307,1.7306,1.7321,1.7321,1.7293,1.7294,1.7294,1.7294,0,0,0,0,0,0,0,1.7373,1.7372,1.7371,1.7357,1.7354,1.7344,1.7341,1.735,1.7326,1.7327,1.7323,1.7322,1.7306,1.7306,1.7305,1.732,1.7293,1.7294,1.7294,1.7294,1.736,1.7361,0,0,0,0,0,0,1.7377,1.7373,1.7371,1.737,1.7359,1.7345,1.7342,1.7343,1.7326,1.7321,1.7323,1.732,1.7305,1.7305,1.7304,1.7339,1.7294,1.7294,1.7295,1.7359,1.736,1.7362,0,0,0,0,0,0,1.7377,1.7377,1.7372,1.7371,1.7369,1.7346,1.7348,1.7344,1.7343,1.7322,1.7318,1.7327,1.7304,1.7304,1.7318,1.7338,1.7295,1.7295,1.7357,1.7359,1.7361,1.7408,0,0,0,0,0,0,1.7377,1.7377,1.7388,1.7371,1.7369,1.7386,1.735,1.7344,1.7344,1.734,1.7325,1.7321,1.7303,1.7318,1.7319,1.7337,1.7296,1.7355,1.7358,1.736,1.7405,1.7412,1.7418,0,0,0,0,0,1.7377,1.7403,1.7389,1.7389,1.7383,1.7387,1.7386,1.7365,1.7346,1.7357,1.7344,1.7322,1.7335,1.7319,1.732,1.734,1.7354,1.7357,1.736,1.7402,1.7411,1.7418,0,0,0,0,0,0,1.7424,1.74,1.7385,1.7405,1.7399,1.738,1.7393,1.7374,1.7373,1.7369,1.7342,1.7339,1.7358,1.735,1.7333,1.7368,1.7341,1.7344,1.7373,1.738,1.7387,1.7388,1.7296,0,0,0,0,0,1.7436,1.7442,1.7421,1.7441,1.7438,1.7417,1.7418,1.7401,1.7394,1.7391,1.7378,1.7372,1.7374,1.7377,1.7378,1.7403,1.74,1.7417,1.7424,1.7429,1.7433,1.7445,1.7453,1.7372,1.7372,1.7372,0,0,1.7462,1.745,1.7455,1.745,1.7443,1.7449,1.7414,1.7423,1.7427,1.7392,1.7405,1.7396,1.7387,1.7407,1.7415,1.7401,1.7454,1.7433,1.7437,1.7438,1.745,1.7457,1.7464,1.7375,1.7374,1.7374,0,0,1.7513,1.7504,1.752,1.7514,1.7503,1.7488,1.7492,1.7476,1.7469,1.7481,1.7455,1.746,1.7465,1.746,1.7458,1.7507,1.7487,1.7508,1.7541,1.7554,1.7561,1.7566,1.7584,1.7591,1.7511,1.7511,1.7511,0,1.7547,1.7556,1.7531,1.7541,1.754,1.7507,1.7523,1.7518,1.7509,1.7509,1.7493,1.7499,1.749,1.7509,1.7521,1.752,1.7524,1.751,1.7562,1.7567,1.7572,1.7589,1.7595,1.7514,1.7514,1.7513,1.7513,0,1.7598,1.7604,1.7618,1.761,1.761,1.7623,1.7601,1.7604,1.7588,1.7575,1.7588,1.7577,1.7575,1.7578,1.7562,1.7595,1.7586,1.7567,1.7539,1.7583,1.7598,1.7604,1.7518,1.7517,1.7516,1.7515,0,0,1.7678,1.7655,1.7661,1.7657,1.7643,1.7647,1.7659,1.7657,1.766,1.7655,1.7664,1.7669,1.7651,1.7649,1.7632,1.7643,1.7683,1.7622,1.7621,1.7634,1.7718,1.7734,1.7741,1.7669,1.7671,1.7671,1.7719,0,1.7726,1.7745,1.7723,1.7746,1.7752,1.7721,1.7731,1.7724,1.7712,1.7715,1.7702,1.7706,1.7681,1.768,1.7689,1.7676,1.77,1.7672,1.7679,1.7679,1.7682,1.7749,1.7766,1.7811,1.7725,1.7726,1.7727,0,1.7785,1.7782,1.7806,1.779,1.7792,1.7801,1.7798,1.7801,1.7792,1.7783,1.778,1.776,1.777,1.7743,1.7758,1.7739,1.7741,1.7735,1.7736,1.7736,1.7706,1.7752,1.7825,1.7832,1.7736,1.7735,1.7734,0,1.7842,1.7844,1.7858,1.7855,1.7837,1.7845,1.7837,1.7827,1.7827,1.7824,1.7824,1.7823,1.7822,1.7822,1.7802,1.7783,1.7819,1.779,1.7812,1.7813,1.7821,1.7821,1.7896,1.7821,1.7821,1.7821,1.7821,0,1.7898,1.7914,1.7883,1.7892,1.7909,1.7884,1.7901,1.7891,1.7882,1.7889,1.7862,1.7869,1.7842,1.7846,1.783,1.7845,1.7845,1.7838,1.7834,1.7841,1.7842,1.7841,1.7838,1.7823,1.7822,1.7822,1.7822,0,1.7965,1.7945,1.7958,1.794,1.7936,1.7949,1.7933,1.7941,1.7927,1.7936,1.7937,1.7915,1.7919,1.7898,1.7898,1.7888,1.791,1.79,1.7913,1.7911,1.7934,1.7932,1.8012,1.8022,1.794,1.7941,1.7942,0,1.8003,1.8014,1.7996,1.7999,1.7993,1.7997,1.7997,1.7972,1.7974,1.7964,1.7973,1.7974,1.7974,1.7981,1.7966,1.7965,1.7956,1.7984,1.7956,1.7962,1.7957,1.7957,1.7958,1.799,1.7991,1.7992,1.7992,0,1.8072,1.8061,1.8062,1.8059,1.806,1.8057,1.8052,1.8056,1.8029,1.8032,1.8035,1.8034,1.8034,1.8036,1.8032,1.8025,1.8005,1.8001,1.8006,1.8014,1.8021,1.8018,1.793,1.8,1.7999,1.7998,1.7998,1.7998,1.8125,1.8134,1.8123,1.8125,1.8119,1.8115,1.8121,1.8108,1.811,1.8107,1.8092,1.8098,1.8089,1.8082,1.8077,1.8081,1.8068,1.8076,1.8078,1.808,1.8085,1.802,1.8081,1.808,1.808,1.808,1.808,0,1.8194,1.8185,1.8187,1.818,1.8182,1.8162,1.8155,1.8158,1.8163,1.8156,1.8156,1.816,1.8161,1.8146,1.8145,1.8152,1.8142,1.8153,1.8152,1.8151,1.8096,1.8092,1.816,1.816,1.816,1.816,1.816,1.816,1.8229,1.8243,1.8231,1.8242,1.8233,1.8238,1.8236,1.8232,1.8226,1.8232,1.8232,1.8222,1.8212,1.821,1.8211,1.8206,1.8207,1.8221,1.8213,1.8163,1.8155,1.8147,1.8143,1.8221,1.8221,1.8268,1.8268,1.8269]}]]